Time,TemperatureF,DewpointF,PressureIn,WindDirection,WindDirectionDegrees,WindSpeedMPH,WindSpeedGustMPH,Humidity,HourlyPrecipIn,Conditions,Clouds,dailyrainin,SoftwareType,DateUTC
2013-03-24 00:00:00,73.8,71.6,29.88,South,173,0.0,0.0,93,0.00,CLR,,0.01,WeatherDisplay:10.37,2013-03-24 04:00:00,
2013-03-24 00:05:00,73.7,71.5,29.88,South,173,0.0,0.0,93,0.00,RA,,0.00,WeatherDisplay:10.37,2013-03-24 04:05:00,
2013-03-24 00:10:00,73.6,71.4,29.89,South,173,0.0,0.0,93,0.00,CLR,,0.00,WeatherDisplay:10.37,2013-03-24 04:10:00,
2013-03-24 00:15:00,73.6,71.8,29.88,South,173,0.0,0.0,94,0.00,CLR,,0.00,WeatherDisplay:10.37,2013-03-24 04:15:00,
2013-03-24 00:20:00,73.7,71.9,29.88,South,173,0.0,0.0,94,0.00,CLR,,0.00,WeatherDisplay:10.37,2013-03-24 04:20:00,
2013-03-24 00:25:00,73.6,71.8,29.88,South,173,0.0,0.0,94,0.00,CLR,,0.00,WeatherDisplay:10.37,2013-03-24 04:25:00,
2013-03-24 00:30:00,73.6,71.8,29.88,South,173,0.0,0.0,94,0.00,CLR,,0.00,WeatherDisplay:10.37,2013-03-24 04:30:00,
2013-03-24 00:35:00,73.6,71.8,29.88,South,173,0.0,0.0,94,0.00,CLR,,0.00,WeatherDisplay:10.37,2013-03-24 04:35:00,
2013-03-24 00:40:00,73.8,72.3,29.88,South,173,0.0,0.0,95,0.00,CLR,,0.00,WeatherDisplay:10.37,2013-03-24 04:40:00,
2013-03-24 00:45:00,73.8,72.0,29.88,South,173,0.0,0.0,94,0.00,CLR,,0.00,WeatherDisplay:10.37,2013-03-24 04:45:00,
2013-03-24 00:50:00,73.8,72.0,29.88,South,173,0.0,0.0,94,0.00,CLR,,0.00,WeatherDisplay:10.37,2013-03-24 04:50:00,
2013-03-24 00:56:00,73.7,71.9,29.88,South,173,0.0,0.0,94,0.00,CLR,,0.00,WeatherDisplay:10.37,2013-03-24 04:56:00,
2013-03-24 01:01:00,73.7,71.9,29.88,South,173,0.0,0.0,94,0.00,CLR,,0.00,WeatherDisplay:10.37,2013-03-24 05:01:00,
2013-03-24 01:06:00,73.7,71.9,29.88,South,173,0.0,0.0,94,0.00,CLR,,0.00,WeatherDisplay:10.37,2013-03-24 05:06:00,
2013-03-24 01:11:00,73.7,71.9,29.88,South,173,0.0,0.0,94,0.00,CLR,,0.00,WeatherDisplay:10.37,2013-03-24 05:11:00,
2013-03-24 01:16:00,73.7,71.9,29.87,South,173,0.0,0.0,94,0.00,CLR,,0.00,WeatherDisplay:10.37,2013-03-24 05:16:00,
2013-03-24 01:21:00,73.6,71.8,29.87,South,173,0.0,0.0,94,0.00,CLR,,0.00,WeatherDisplay:10.37,2013-03-24 05:21:00,
2013-03-24 01:26:00,73.6,72.1,29.87,South,173,0.2,2.3,95,0.00,CLR,,0.00,WeatherDisplay:10.37,2013-03-24 05:26:00,
2013-03-24 01:31:00,73.7,72.2,29.87,South,173,0.7,2.3,95,0.00,CLR,,0.00,WeatherDisplay:10.37,2013-03-24 05:31:00,
2013-03-24 01:36:00,73.8,72.3,29.87,South,173,0.0,1.1,95,0.00,CLR,,0.00,WeatherDisplay:10.37,2013-03-24 05:36:00,
2013-03-24 01:41:00,73.8,72.0,29.87,South,173,0.0,0.0,94,0.00,CLR,,0.00,WeatherDisplay:10.37,2013-03-24 05:41:00,
2013-03-24 01:46:00,73.9,72.4,29.86,South,173,0.0,0.0,95,0.00,CLR,,0.00,WeatherDisplay:10.37,2013-03-24 05:46:00,
2013-03-24 01:52:00,74.0,72.2,29.86,South,173,0.1,1.1,94,0.00,CLR,,0.00,WeatherDisplay:10.37,2013-03-24 05:52:00,
2013-03-24 01:57:00,74.0,72.5,29.86,South,173,0.7,2.3,95,0.00,CLR,,0.00,WeatherDisplay:10.37,2013-03-24 05:57:00,
2013-03-24 02:02:00,74.0,72.2,29.85,South,173,0.0,0.0,94,0.00,CLR,,0.00,WeatherDisplay:10.37,2013-03-24 06:02:00,
2013-03-24 02:07:00,74.0,72.2,29.85,South,173,0.0,0.0,94,0.00,CLR,,0.00,WeatherDisplay:10.37,2013-03-24 06:07:00,
2013-03-24 02:12:00,74.0,72.2,29.85,South,173,0.6,1.1,94,0.00,CLR,,0.00,WeatherDisplay:10.37,2013-03-24 06:12:00,
2013-03-24 02:17:00,74.0,72.5,29.85,South,173,0.0,2.3,95,0.00,CLR,,0.00,WeatherDisplay:10.37,2013-03-24 06:17:00,
2013-03-24 02:22:00,74.0,72.5,29.85,South,173,0.0,0.0,95,0.00,CLR,,0.00,WeatherDisplay:10.37,2013-03-24 06:22:00,
2013-03-24 02:27:00,74.0,72.5,29.85,South,173,0.0,0.0,95,0.00,CLR,,0.00,WeatherDisplay:10.37,2013-03-24 06:27:00,
2013-03-24 02:32:00,73.9,72.4,29.85,South,173,0.0,0.0,95,0.00,CLR,,0.00,WeatherDisplay:10.37,2013-03-24 06:32:00,
2013-03-24 02:37:00,73.8,72.3,29.85,South,173,0.5,1.1,95,0.00,CLR,,0.00,WeatherDisplay:10.37,2013-03-24 06:37:00,
2013-03-24 02:42:00,73.8,72.3,29.84,South,173,0.0,1.1,95,0.00,CLR,,0.00,WeatherDisplay:10.37,2013-03-24 06:42:00,
2013-03-24 02:47:00,73.7,72.2,29.84,South,173,0.0,0.0,95,0.00,CLR,,0.00,WeatherDisplay:10.37,2013-03-24 06:47:00,
2013-03-24 02:53:00,73.7,72.2,29.83,South,173,0.0,0.0,95,0.00,CLR,,0.00,WeatherDisplay:10.37,2013-03-24 06:53:00,
2013-03-24 02:58:00,73.7,72.5,29.83,South,173,0.0,0.0,96,0.00,CLR,,0.00,WeatherDisplay:10.37,2013-03-24 06:58:00,
2013-03-24 03:03:00,73.8,72.6,29.83,South,173,0.4,1.1,96,0.00,CLR,,0.00,WeatherDisplay:10.37,2013-03-24 07:03:00,
2013-03-24 03:08:00,73.8,72.6,29.83,South,173,0.1,1.1,96,0.00,CLR,,0.00,WeatherDisplay:10.37,2013-03-24 07:08:00,
2013-03-24 03:13:00,73.8,72.6,29.83,South,173,0.1,0.0,96,0.00,CLR,,0.00,WeatherDisplay:10.37,2013-03-24 07:13:00,
2013-03-24 03:18:00,73.8,72.6,29.83,South,173,0.1,1.1,96,0.00,CLR,,0.00,WeatherDisplay:10.37,2013-03-24 07:18:00,
2013-03-24 03:23:00,73.7,72.5,29.83,South,173,0.0,0.0,96,0.00,CLR,,0.00,WeatherDisplay:10.37,2013-03-24 07:23:00,
2013-03-24 03:28:00,73.6,72.4,29.83,South,173,0.0,0.0,96,0.00,CLR,,0.00,WeatherDisplay:10.37,2013-03-24 07:28:00,
2013-03-24 03:33:00,73.6,72.4,29.82,South,173,0.3,1.1,96,0.00,CLR,,0.00,WeatherDisplay:10.37,2013-03-24 07:33:00,
2013-03-24 03:38:00,73.5,72.3,29.82,South,173,0.1,0.0,96,0.00,CLR,,0.00,WeatherDisplay:10.37,2013-03-24 07:38:00,
2013-03-24 03:43:00,73.5,72.3,29.82,South,173,0.3,1.1,96,0.00,CLR,,0.00,WeatherDisplay:10.37,2013-03-24 07:43:00,
2013-03-24 03:48:00,73.5,72.3,29.82,South,173,0.1,1.1,96,0.00,CLR,,0.00,WeatherDisplay:10.37,2013-03-24 07:48:00,
2013-03-24 03:53:00,73.6,72.4,29.82,South,173,0.5,1.1,96,0.00,CLR,,0.00,WeatherDisplay:10.37,2013-03-24 07:53:00,
2013-03-24 03:58:00,73.6,72.4,29.82,South,173,0.1,1.1,96,0.00,CLR,,0.00,WeatherDisplay:10.37,2013-03-24 07:58:00,
2013-03-24 04:03:00,73.7,72.8,29.82,South,173,0.8,2.3,97,0.00,CLR,,0.00,WeatherDisplay:10.37,2013-03-24 08:03:00,
2013-03-24 04:08:00,73.6,72.4,29.82,South,173,0.0,0.0,96,0.00,CLR,,0.00,WeatherDisplay:10.37,2013-03-24 08:08:00,
2013-03-24 04:13:00,73.5,72.3,29.81,South,173,0.0,0.0,96,0.00,CLR,,0.00,WeatherDisplay:10.37,2013-03-24 08:13:00,
2013-03-24 04:18:00,73.6,72.7,29.81,South,173,0.2,1.1,97,0.00,CLR,,0.00,WeatherDisplay:10.37,2013-03-24 08:18:00,
2013-03-24 04:23:00,73.6,72.7,29.81,South,173,0.5,1.1,97,0.00,CLR,,0.00,WeatherDisplay:10.37,2013-03-24 08:23:00,
2013-03-24 04:28:00,73.6,72.7,29.81,South,173,0.3,2.3,97,0.00,CLR,,0.00,WeatherDisplay:10.37,2013-03-24 08:28:00,
2013-03-24 04:33:00,73.6,72.7,29.81,South,173,0.0,0.0,97,0.00,CLR,,0.00,WeatherDisplay:10.37,2013-03-24 08:33:00,
2013-03-24 04:38:00,73.6,72.7,29.81,South,173,0.0,1.0,97,0.00,CLR,,0.00,WeatherDisplay:10.37,2013-03-24 08:38:00,
2013-03-24 04:43:00,73.6,72.7,29.81,South,173,0.0,0.0,97,0.00,CLR,,0.00,WeatherDisplay:10.37,2013-03-24 08:43:00,
2013-03-24 04:48:00,73.6,72.7,29.81,South,173,0.0,1.1,97,0.00,CLR,,0.00,WeatherDisplay:10.37,2013-03-24 08:48:00,
2013-03-24 04:53:00,73.5,72.6,29.81,South,173,0.7,2.3,97,0.00,CLR,,0.00,WeatherDisplay:10.37,2013-03-24 08:53:00,
2013-03-24 04:58:00,73.5,72.6,29.81,South,173,0.1,0.0,97,0.00,CLR,,0.00,WeatherDisplay:10.37,2013-03-24 08:58:00,
2013-03-24 05:03:00,73.5,72.6,29.81,South,173,0.0,0.0,97,0.00,CLR,,0.00,WeatherDisplay:10.37,2013-03-24 09:03:00,
2013-03-24 05:08:00,73.4,72.5,29.81,South,173,0.4,2.3,97,0.00,CLR,,0.00,WeatherDisplay:10.37,2013-03-24 09:08:00,
2013-03-24 05:13:00,73.5,72.6,29.81,South,173,1.5,2.3,97,0.00,CLR,,0.00,WeatherDisplay:10.37,2013-03-24 09:13:00,
2013-03-24 05:18:00,73.5,72.6,29.80,SE,141,0.1,1.1,97,0.00,CLR,,0.00,WeatherDisplay:10.37,2013-03-24 09:18:00,
2013-03-24 05:23:00,73.5,72.6,29.80,SSE,148,0.4,2.3,97,0.00,CLR,,0.00,WeatherDisplay:10.37,2013-03-24 09:23:00,
2013-03-24 05:28:00,73.5,72.6,29.80,SSE,164,0.9,3.5,97,0.00,CLR,,0.00,WeatherDisplay:10.37,2013-03-24 09:28:00,
2013-03-24 05:33:00,73.5,72.6,29.80,SSE,153,0.8,2.3,97,0.00,CLR,,0.00,WeatherDisplay:10.37,2013-03-24 09:33:00,
2013-03-24 05:38:00,73.6,72.7,29.80,SSW,193,1.7,2.3,97,0.00,CLR,,0.00,WeatherDisplay:10.37,2013-03-24 09:38:00,
2013-03-24 05:43:00,73.6,72.7,29.80,South,182,0.5,1.1,97,0.00,CLR,,0.00,WeatherDisplay:10.37,2013-03-24 09:43:00,
2013-03-24 05:48:00,73.7,72.8,29.80,South,180,1.1,3.5,97,0.00,CLR,,0.00,WeatherDisplay:10.37,2013-03-24 09:48:00,
2013-03-24 05:53:00,73.8,72.9,29.80,South,179,1.4,3.5,97,0.00,CLR,,0.00,WeatherDisplay:10.37,2013-03-24 09:53:00,
2013-03-24 05:58:00,73.8,72.9,29.80,South,185,1.8,5.8,97,0.00,CLR,,0.00,WeatherDisplay:10.37,2013-03-24 09:58:00,
2013-03-24 06:03:00,73.9,73.0,29.80,SSW,193,1.4,7.0,97,0.00,CLR,,0.00,WeatherDisplay:10.37,2013-03-24 10:03:00,
2013-03-24 06:08:00,73.9,73.0,29.80,WSW,250,3.6,6.9,97,0.00,CLR,,0.00,WeatherDisplay:10.37,2013-03-24 10:08:00,
2013-03-24 06:13:00,73.9,73.0,29.80,SSW,195,1.7,3.5,97,0.00,CLR,,0.00,WeatherDisplay:10.37,2013-03-24 10:13:00,
2013-03-24 06:18:00,73.9,73.0,29.80,South,187,2.3,6.9,97,0.00,CLR,,0.00,WeatherDisplay:10.37,2013-03-24 10:18:00,
2013-03-24 06:23:00,74.0,73.1,29.80,SSE,159,4.5,6.9,97,0.00,CLR,,0.00,WeatherDisplay:10.37,2013-03-24 10:23:00,
2013-03-24 06:28:00,74.0,73.1,29.80,South,169,2.3,5.8,97,0.00,CLR,,0.00,WeatherDisplay:10.37,2013-03-24 10:28:00,
2013-03-24 06:33:00,74.0,73.1,29.79,South,188,4.8,6.9,97,0.00,CLR,,0.00,WeatherDisplay:10.37,2013-03-24 10:33:00,
2013-03-24 06:38:00,74.1,73.2,29.80,SSE,164,2.6,8.1,97,0.00,CLR,,0.00,WeatherDisplay:10.37,2013-03-24 10:38:00,
2013-03-24 06:43:00,74.1,73.2,29.80,SSW,196,3.2,6.9,97,0.00,CLR,,0.00,WeatherDisplay:10.37,2013-03-24 10:43:00,
2013-03-24 06:48:00,74.1,73.2,29.80,SW,228,2.8,4.6,97,0.00,CLR,,0.00,WeatherDisplay:10.37,2013-03-24 10:48:00,
2013-03-24 06:53:00,74.1,73.2,29.80,SSW,195,2.1,4.6,97,0.00,CLR,,0.00,WeatherDisplay:10.37,2013-03-24 10:53:00,
2013-03-24 06:58:00,74.2,73.3,29.80,SSE,163,4.4,6.9,97,0.00,CLR,,0.00,WeatherDisplay:10.37,2013-03-24 10:58:00,
2013-03-24 07:03:00,74.2,73.3,29.79,South,184,3.7,8.1,97,0.00,CLR,,0.00,WeatherDisplay:10.37,2013-03-24 11:03:00,
2013-03-24 07:08:00,74.2,73.3,29.79,SSE,155,5.1,5.8,97,0.00,CLR,,0.00,WeatherDisplay:10.37,2013-03-24 11:08:00,
2013-03-24 07:13:00,74.2,73.3,29.79,SSW,194,3.2,3.5,97,0.00,CLR,,0.00,WeatherDisplay:10.37,2013-03-24 11:13:00,
2013-03-24 07:18:00,74.2,73.3,29.79,South,174,3.4,4.6,97,0.00,CLR,,0.00,WeatherDisplay:10.37,2013-03-24 11:18:00,
2013-03-24 07:23:00,74.2,73.3,29.78,SSW,202,2.7,6.9,97,0.00,CLR,,0.00,WeatherDisplay:10.37,2013-03-24 11:23:00,
2013-03-24 07:28:00,74.1,73.2,29.78,SSW,210,1.4,4.6,97,0.00,CLR,,0.00,WeatherDisplay:10.37,2013-03-24 11:28:00,
2013-03-24 07:34:00,74.1,73.2,29.78,South,184,3.2,6.9,97,0.00,CLR,,0.00,WeatherDisplay:10.37,2013-03-24 11:34:00,
2013-03-24 07:39:00,74.1,72.9,29.78,SSW,203,3.4,4.6,96,0.00,CLR,,0.00,WeatherDisplay:10.37,2013-03-24 11:39:00,
2013-03-24 07:44:00,74.1,72.9,29.79,SSW,197,6.0,9.2,96,0.00,CLR,,0.00,WeatherDisplay:10.37,2013-03-24 11:44:00,
2013-03-24 07:49:00,74.2,73.0,29.79,SW,233,6.3,6.9,96,0.00,CLR,,0.00,WeatherDisplay:10.37,2013-03-24 11:49:00,
2013-03-24 07:54:00,74.3,73.1,29.79,South,188,5.8,5.8,96,0.00,CLR,,0.00,WeatherDisplay:10.37,2013-03-24 11:54:00,
2013-03-24 07:59:00,74.5,73.0,29.79,South,191,3.6,6.9,95,0.00,CLR,,0.00,WeatherDisplay:10.37,2013-03-24 11:59:00,
2013-03-24 08:04:00,74.7,73.2,29.78,South,182,6.3,9.2,95,0.00,CLR,,0.00,WeatherDisplay:10.37,2013-03-24 12:04:00,
2013-03-24 08:09:00,75.0,73.2,29.78,South,184,5.4,10.4,94,0.00,CLR,,0.00,WeatherDisplay:10.37,2013-03-24 12:09:00,
2013-03-24 08:14:00,75.3,73.1,29.78,SSW,192,7.1,11.5,93,0.00,CLR,,0.00,WeatherDisplay:10.37,2013-03-24 12:14:00,
2013-03-24 08:19:00,75.5,73.3,29.78,South,178,5.2,9.2,93,0.00,CLR,,0.00,WeatherDisplay:10.37,2013-03-24 12:19:00,
2013-03-24 08:24:00,75.8,73.3,29.78,South,188,6.6,15.0,92,0.01,RA,,0.01,WeatherDisplay:10.37,2013-03-24 12:24:00,
2013-03-24 08:29:00,76.0,73.5,29.78,South,189,8.5,13.8,92,0.01,RA,,0.01,WeatherDisplay:10.37,2013-03-24 12:29:00,
2013-03-24 08:34:00,76.2,73.4,29.77,SSW,202,3.5,8.1,91,0.01,CLR,,0.01,WeatherDisplay:10.37,2013-03-24 12:34:00,
2013-03-24 08:39:00,76.4,73.6,29.77,SSW,195,3.3,6.9,91,0.01,CLR,,0.01,WeatherDisplay:10.37,2013-03-24 12:39:00,
2013-03-24 08:44:00,76.5,73.7,29.77,SSW,208,4.1,5.8,91,0.01,CLR,,0.01,WeatherDisplay:10.37,2013-03-24 12:44:00,
2013-03-24 08:49:00,76.6,73.8,29.77,SE,128,7.4,8.1,91,0.01,CLR,,0.01,WeatherDisplay:10.37,2013-03-24 12:49:00,
2013-03-24 08:54:00,76.6,73.8,29.77,SSW,196,5.8,9.2,91,0.01,CLR,,0.01,WeatherDisplay:10.37,2013-03-24 12:54:00,
2013-03-24 08:59:00,76.8,73.6,29.77,SSW,196,7.1,8.1,90,0.01,CLR,,0.01,WeatherDisplay:10.37,2013-03-24 12:59:00,
2013-03-24 09:04:00,77.1,73.9,29.77,SW,215,6.7,9.2,90,0.01,CLR,,0.01,WeatherDisplay:10.37,2013-03-24 13:04:00,
2013-03-24 09:09:00,77.4,73.9,29.77,SW,219,8.1,11.5,89,0.01,CLR,,0.01,WeatherDisplay:10.37,2013-03-24 13:09:00,
2013-03-24 09:14:00,77.6,73.8,29.77,SW,217,7.5,16.1,88,0.01,CLR,,0.01,WeatherDisplay:10.37,2013-03-24 13:14:00,
2013-03-24 09:19:00,77.7,73.9,29.77,SE,133,7.0,13.8,88,0.01,CLR,,0.01,WeatherDisplay:10.37,2013-03-24 13:19:00,
2013-03-24 09:24:00,78.0,73.8,29.77,South,186,6.8,11.5,87,0.00,CLR,,0.01,WeatherDisplay:10.37,2013-03-24 13:24:00,
2013-03-24 09:29:00,78.2,74.0,29.77,SW,217,7.2,11.5,87,0.00,CLR,,0.01,WeatherDisplay:10.37,2013-03-24 13:29:00,
2013-03-24 09:34:00,78.7,74.2,29.77,South,181,8.2,12.7,86,0.00,CLR,,0.01,WeatherDisplay:10.37,2013-03-24 13:34:00,
2013-03-24 09:39:00,78.9,74.0,29.77,SSW,213,6.5,10.4,85,0.00,CLR,,0.01,WeatherDisplay:10.37,2013-03-24 13:39:00,
2013-03-24 09:44:00,79.0,74.1,29.77,SSW,209,10.8,17.3,85,0.00,CLR,,0.01,WeatherDisplay:10.37,2013-03-24 13:44:00,
2013-03-24 09:49:00,79.2,73.9,29.77,South,178,5.3,9.2,84,0.00,CLR,,0.01,WeatherDisplay:10.37,2013-03-24 13:49:00,
2013-03-24 09:54:00,79.2,73.6,29.77,South,174,8.3,12.7,83,0.00,CLR,,0.01,WeatherDisplay:10.37,2013-03-24 13:54:00,
2013-03-24 09:59:00,79.5,73.9,29.77,SSW,212,8.3,9.2,83,0.00,CLR,,0.01,WeatherDisplay:10.37,2013-03-24 13:59:00,
2013-03-24 10:04:00,80.0,74.0,29.77,SSE,167,7.8,11.5,82,0.00,CLR,,0.01,WeatherDisplay:10.37,2013-03-24 14:04:00,
2013-03-24 10:09:00,80.4,74.0,29.77,South,181,11.9,19.6,81,0.00,CLR,,0.01,WeatherDisplay:10.37,2013-03-24 14:09:00,
2013-03-24 10:14:00,80.8,74.0,29.77,South,180,12.4,19.6,80,0.00,CLR,,0.01,WeatherDisplay:10.37,2013-03-24 14:14:00,
2013-03-24 10:19:00,81.1,74.0,29.77,South,187,12.0,19.6,79,0.00,CLR,,0.01,WeatherDisplay:10.37,2013-03-24 14:19:00,
2013-03-24 10:24:00,81.3,73.8,29.77,SW,214,13.3,23.0,78,0.00,CLR,,0.01,WeatherDisplay:10.37,2013-03-24 14:24:00,
2013-03-24 10:29:00,81.1,73.6,29.77,South,189,11.3,19.6,78,0.00,CLR,,0.01,WeatherDisplay:10.37,2013-03-24 14:29:00,
2013-03-24 10:34:00,81.5,74.0,29.77,SSW,206,6.5,15.0,78,0.00,CLR,,0.01,WeatherDisplay:10.37,2013-03-24 14:34:00,
2013-03-24 10:39:00,81.5,74.0,29.77,SSW,213,7.6,13.8,78,0.00,CLR,,0.01,WeatherDisplay:10.37,2013-03-24 14:39:00,
2013-03-24 10:44:00,81.7,74.2,29.77,South,179,8.4,12.7,78,0.00,CLR,,0.01,WeatherDisplay:10.37,2013-03-24 14:44:00,
2013-03-24 10:49:00,81.9,74.0,29.77,WSW,256,6.0,8.1,77,0.00,CLR,,0.01,WeatherDisplay:10.37,2013-03-24 14:49:00,
2013-03-24 10:54:00,81.7,73.0,29.77,SSW,196,15.5,25.3,75,0.00,CLR,,0.01,WeatherDisplay:10.37,2013-03-24 14:54:00,
2013-03-24 10:59:00,81.4,72.7,29.77,SSW,200,10.9,17.3,75,0.00,CLR,,0.01,WeatherDisplay:10.37,2013-03-24 14:59:00,
2013-03-24 11:04:00,81.6,72.9,29.77,SW,228,9.2,21.9,75,0.00,CLR,,0.01,WeatherDisplay:10.37,2013-03-24 15:04:00,
2013-03-24 11:09:00,82.4,73.7,29.77,South,178,5.6,12.7,75,0.00,CLR,,0.01,WeatherDisplay:10.37,2013-03-24 15:09:00,
2013-03-24 11:14:00,83.4,73.8,29.77,SSW,211,8.0,11.5,73,0.00,CLR,,0.01,WeatherDisplay:10.37,2013-03-24 15:14:00,
2013-03-24 11:19:00,83.9,73.5,29.77,SW,231,10.9,13.8,71,0.00,CLR,,0.01,WeatherDisplay:10.37,2013-03-24 15:19:00,
2013-03-24 11:24:00,83.4,73.0,29.77,SW,231,10.5,13.8,71,0.00,CLR,,0.01,WeatherDisplay:10.37,2013-03-24 15:24:00,
2013-03-24 11:30:00,83.3,73.3,29.77,SW,228,8.9,15.0,72,0.00,CLR,,0.01,WeatherDisplay:10.37,2013-03-24 15:30:00,
2013-03-24 11:35:00,83.6,73.6,29.77,South,188,9.7,15.0,72,0.00,CLR,,0.01,WeatherDisplay:10.37,2013-03-24 15:35:00,
2013-03-24 11:40:00,83.5,72.7,29.77,SW,225,13.6,18.4,70,0.00,CLR,,0.01,WeatherDisplay:10.37,2013-03-24 15:40:00,
2013-03-24 11:45:00,83.4,73.0,29.77,SW,233,10.0,19.6,71,0.00,CLR,,0.01,WeatherDisplay:10.37,2013-03-24 15:45:00,
2013-03-24 11:50:00,84.2,72.9,29.77,South,170,14.8,25.3,69,0.00,CLR,,0.01,WeatherDisplay:10.37,2013-03-24 15:50:00,
2013-03-24 11:55:00,84.7,73.4,29.77,SSW,201,11.6,21.9,69,0.00,CLR,,0.01,WeatherDisplay:10.37,2013-03-24 15:55:00,
2013-03-24 12:00:00,84.6,72.9,29.78,SSW,192,9.2,21.9,68,0.00,CLR,,0.01,WeatherDisplay:10.37,2013-03-24 16:00:00,
2013-03-24 12:05:00,84.1,72.4,29.77,South,184,11.9,17.3,68,0.00,CLR,,0.01,WeatherDisplay:10.37,2013-03-24 16:05:00,
2013-03-24 12:10:00,84.5,73.2,29.77,SSW,213,6.6,8.1,69,0.00,CLR,,0.01,WeatherDisplay:10.37,2013-03-24 16:10:00,
2013-03-24 12:15:00,85.2,73.0,29.77,SSW,213,10.7,15.0,67,0.00,CLR,,0.01,WeatherDisplay:10.37,2013-03-24 16:15:00,
2013-03-24 12:20:00,86.0,73.3,29.77,SW,221,11.3,23.0,66,0.00,CLR,,0.01,WeatherDisplay:10.37,2013-03-24 16:20:00,
2013-03-24 12:25:00,86.3,73.1,29.77,SW,220,16.6,24.2,65,0.00,CLR,,0.01,WeatherDisplay:10.37,2013-03-24 16:25:00,
2013-03-24 12:30:00,85.6,72.5,29.77,WSW,237,14.4,23.0,65,0.00,CLR,,0.01,WeatherDisplay:10.37,2013-03-24 16:30:00,
2013-03-24 12:35:00,85.2,73.0,29.77,South,191,9.9,20.7,67,0.00,CLR,,0.01,WeatherDisplay:10.37,2013-03-24 16:35:00,
2013-03-24 12:40:00,85.7,73.0,29.77,SW,215,13.2,21.9,66,0.00,CLR,,0.01,WeatherDisplay:10.37,2013-03-24 16:40:00,
2013-03-24 12:45:00,86.4,73.2,29.77,SW,232,12.0,19.6,65,0.00,CLR,,0.01,WeatherDisplay:10.37,2013-03-24 16:45:00,
2013-03-24 12:50:00,86.6,73.4,29.76,SW,234,11.8,12.7,65,0.00,CLR,,0.01,WeatherDisplay:10.37,2013-03-24 16:50:00,
2013-03-24 12:55:00,86.7,73.1,29.76,SSW,213,13.1,17.3,64,0.00,CLR,,0.01,WeatherDisplay:10.37,2013-03-24 16:55:00,
2013-03-24 13:00:00,87.1,73.9,29.76,SSW,211,7.2,12.7,65,0.00,CLR,,0.01,WeatherDisplay:10.37,2013-03-24 17:00:00,
2013-03-24 13:05:00,86.9,73.3,29.76,SW,223,9.7,18.4,64,0.00,CLR,,0.01,WeatherDisplay:10.37,2013-03-24 17:05:00,
2013-03-24 13:10:00,86.6,73.0,29.75,SW,215,19.8,26.5,64,0.00,CLR,,0.01,WeatherDisplay:10.37,2013-03-24 17:10:00,
2013-03-24 13:15:00,86.6,73.9,29.75,SW,216,9.3,9.3,66,0.00,CLR,,0.01,WeatherDisplay:10.37,2013-03-24 17:15:00,
2013-03-24 13:20:00,87.1,73.4,29.76,SW,217,8.2,13.8,64,0.00,CLR,,0.01,WeatherDisplay:10.37,2013-03-24 17:20:00,
2013-03-24 13:25:00,87.1,73.4,29.76,SSW,207,9.6,17.3,64,0.00,CLR,,0.01,WeatherDisplay:10.37,2013-03-24 17:25:00,
2013-03-24 13:30:00,87.4,73.3,29.75,SW,235,6.2,17.3,63,0.00,CLR,,0.01,WeatherDisplay:10.37,2013-03-24 17:30:00,
2013-03-24 13:36:00,87.5,72.9,29.75,SW,224,7.8,0.0,62,0.00,RA,,0.01,WeatherDisplay:10.37,2013-03-24 17:36:00,
2013-03-24 13:41:00,87.0,73.3,29.75,WSW,248,11.0,13.8,64,0.00,RA,,0.01,WeatherDisplay:10.37,2013-03-24 17:41:00,
2013-03-24 13:46:00,87.0,73.3,29.76,SW,229,13.0,19.6,64,0.00,CLR,,0.01,WeatherDisplay:10.37,2013-03-24 17:46:00,
2013-03-24 13:51:00,87.1,73.0,29.76,SW,228,19.3,19.3,63,0.00,CLR,,0.01,WeatherDisplay:10.37,2013-03-24 17:51:00,
2013-03-24 13:56:00,86.7,73.1,29.75,SW,225,9.9,17.3,64,0.00,CLR,,0.01,WeatherDisplay:10.37,2013-03-24 17:56:00,
2013-03-24 14:01:00,87.2,73.1,29.75,WSW,243,11.3,18.4,63,0.00,CLR,,0.01,WeatherDisplay:10.37,2013-03-24 18:01:00,
2013-03-24 14:06:00,87.7,73.1,29.75,SW,236,15.7,26.5,62,0.00,CLR,,0.01,WeatherDisplay:10.37,2013-03-24 18:06:00,
2013-03-24 14:11:00,87.6,72.5,29.75,SSW,209,12.3,18.4,61,0.00,CLR,,0.01,WeatherDisplay:10.37,2013-03-24 18:11:00,
2013-03-24 14:16:00,87.2,72.6,29.75,SW,215,16.1,19.6,62,0.00,CLR,,0.01,WeatherDisplay:10.37,2013-03-24 18:16:00,
2013-03-24 14:21:00,87.2,72.6,29.75,SW,223,13.0,24.2,62,0.00,CLR,,0.01,WeatherDisplay:10.37,2013-03-24 18:21:00,
2013-03-24 14:27:00,87.6,72.5,29.74,SW,219,14.3,24.2,61,0.00,CLR,,0.01,WeatherDisplay:10.37,2013-03-24 18:27:00,
2013-03-24 14:32:00,87.7,72.6,29.74,SW,217,12.6,19.0,61,0.00,CLR,,0.01,WeatherDisplay:10.37,2013-03-24 18:32:00,
2013-03-24 14:37:00,87.4,72.8,29.73,SW,236,11.4,19.6,62,0.00,CLR,,0.01,WeatherDisplay:10.37,2013-03-24 18:37:00,
2013-03-24 14:42:00,87.5,73.3,29.73,SW,215,13.1,17.3,63,0.00,CLR,,0.01,WeatherDisplay:10.37,2013-03-24 18:42:00,
2013-03-24 14:47:00,87.8,73.6,29.73,SSW,213,15.4,19.6,63,0.00,CLR,,0.01,WeatherDisplay:10.37,2013-03-24 18:47:00,
2013-03-24 14:52:00,87.7,73.1,29.72,SW,226,12.9,21.9,62,0.00,CLR,,0.01,WeatherDisplay:10.37,2013-03-24 18:52:00,
2013-03-24 14:57:00,87.7,73.1,29.72,SSW,206,8.0,13.8,62,0.00,CLR,,0.01,WeatherDisplay:10.37,2013-03-24 18:57:00,
2013-03-24 15:02:00,87.9,72.3,29.72,SSW,211,12.2,17.3,60,0.00,CLR,,0.01,WeatherDisplay:10.37,2013-03-24 19:02:00,
2013-03-24 15:07:00,87.8,72.2,29.72,SW,215,11.0,18.4,60,0.00,CLR,,0.01,WeatherDisplay:10.37,2013-03-24 19:07:00,
2013-03-24 15:12:00,87.9,71.8,29.72,West,263,15.0,21.9,59,0.00,CLR,,0.01,WeatherDisplay:10.37,2013-03-24 19:12:00,
2013-03-24 15:17:00,88.1,72.0,29.72,SSW,208,11.6,19.6,59,0.00,CLR,,0.01,WeatherDisplay:10.37,2013-03-24 19:17:00,
2013-03-24 15:22:00,87.9,71.8,29.72,WSW,253,11.5,18.4,59,0.00,CLR,,0.01,WeatherDisplay:10.37,2013-03-24 19:22:00,
2013-03-24 15:27:00,87.5,71.9,29.72,WSW,240,10.2,12.7,60,0.00,CLR,,0.01,WeatherDisplay:10.37,2013-03-24 19:27:00,
2013-03-24 15:32:00,87.2,71.1,29.72,SSW,211,15.3,24.2,59,0.00,CLR,,0.01,WeatherDisplay:10.37,2013-03-24 19:32:00,
2013-03-24 15:37:00,86.8,71.7,29.72,WSW,240,10.6,19.6,61,0.00,CLR,,0.01,WeatherDisplay:10.37,2013-03-24 19:37:00,
2013-03-24 15:42:00,87.2,72.1,29.71,SSW,194,13.9,15.0,61,0.00,CLR,,0.01,WeatherDisplay:10.37,2013-03-24 19:42:00,
2013-03-24 15:47:00,87.2,71.1,29.71,SW,216,15.4,24.2,59,0.00,CLR,,0.01,WeatherDisplay:10.37,2013-03-24 19:47:00,
2013-03-24 15:52:00,87.3,72.2,29.71,SSW,213,12.3,16.1,61,0.00,CLR,,0.01,WeatherDisplay:10.37,2013-03-24 19:52:00,
2013-03-24 15:57:00,87.3,71.2,29.71,SSW,207,12.7,19.6,59,0.00,CLR,,0.01,WeatherDisplay:10.37,2013-03-24 19:57:00,
2013-03-24 16:02:00,87.2,72.1,29.70,SW,233,10.2,16.1,61,0.00,CLR,,0.01,WeatherDisplay:10.37,2013-03-24 20:02:00,
2013-03-24 16:08:00,86.8,71.7,29.70,SW,234,12.2,21.9,61,0.00,CLR,,0.01,WeatherDisplay:10.37,2013-03-24 20:08:00,
2013-03-24 16:13:00,86.5,71.5,29.70,SW,215,14.2,18.4,61,0.00,CLR,,0.01,WeatherDisplay:10.37,2013-03-24 20:13:00,
2013-03-24 16:18:00,86.4,72.3,29.70,WSW,248,9.4,16.1,63,0.00,CLR,,0.01,WeatherDisplay:10.37,2013-03-24 20:18:00,
2013-03-24 16:23:00,86.4,72.3,29.70,WSW,248,8.5,16.1,63,0.00,CLR,,0.01,WeatherDisplay:10.37,2013-03-24 20:23:00,
2013-03-24 16:28:00,86.3,72.2,29.70,SW,225,7.7,12.7,63,0.00,CLR,,0.01,WeatherDisplay:10.37,2013-03-24 20:28:00,
2013-03-24 16:33:00,86.1,72.0,29.70,SSW,213,12.2,17.3,63,0.00,CLR,,0.01,WeatherDisplay:10.37,2013-03-24 20:33:00,
2013-03-24 16:38:00,86.5,72.4,29.70,SW,219,11.3,16.1,63,0.00,CLR,,0.01,WeatherDisplay:10.37,2013-03-24 20:38:00,
2013-03-24 16:43:00,86.3,72.2,29.70,WSW,247,11.2,12.7,63,0.00,CLR,,0.01,WeatherDisplay:10.37,2013-03-24 20:43:00,
2013-03-24 16:48:00,86.1,72.0,29.70,SW,221,9.4,15.0,63,0.00,CLR,,0.01,WeatherDisplay:10.37,2013-03-24 20:48:00,
2013-03-24 16:53:00,85.9,72.8,29.70,WSW,249,8.4,12.7,65,0.00,CLR,,0.01,WeatherDisplay:10.37,2013-03-24 20:53:00,
2013-03-24 16:58:00,85.8,72.7,29.71,SW,234,11.5,17.3,65,0.00,CLR,,0.01,WeatherDisplay:10.37,2013-03-24 20:58:00,
2013-03-24 17:03:00,85.8,72.2,29.71,WSW,244,8.4,12.7,64,0.00,CLR,,0.01,WeatherDisplay:10.37,2013-03-24 21:03:00,
2013-03-24 17:08:00,86.0,72.4,29.71,WSW,242,13.5,20.7,64,0.00,CLR,,0.01,WeatherDisplay:10.37,2013-03-24 21:08:00,
2013-03-24 17:13:00,86.1,72.0,29.71,SW,236,13.0,19.6,63,0.00,CLR,,0.01,WeatherDisplay:10.37,2013-03-24 21:13:00,
2013-03-24 17:18:00,86.1,72.5,29.71,WSW,242,7.9,16.1,64,0.00,CLR,,0.01,WeatherDisplay:10.37,2013-03-24 21:18:00,
2013-03-24 17:23:00,86.3,72.2,29.70,WSW,244,7.0,11.5,63,0.00,CLR,,0.01,WeatherDisplay:10.37,2013-03-24 21:23:00,
2013-03-24 17:28:00,86.1,71.6,29.70,SSW,211,18.9,26.5,62,0.00,CLR,,0.01,WeatherDisplay:10.37,2013-03-24 21:28:00,
2013-03-24 17:33:00,85.7,71.7,29.70,WSW,252,13.3,18.4,63,0.00,CLR,,0.01,WeatherDisplay:10.37,2013-03-24 21:33:00,
2013-03-24 17:38:00,85.4,71.4,29.70,SSW,213,13.3,24.2,63,0.00,CLR,,0.01,WeatherDisplay:10.37,2013-03-24 21:38:00,
2013-03-24 17:43:00,85.2,72.1,29.70,WSW,251,6.6,11.5,65,0.00,CLR,,0.01,WeatherDisplay:10.37,2013-03-24 21:43:00,
2013-03-24 17:48:00,85.4,72.3,29.71,NW,319,9.9,12.7,65,0.00,CLR,,0.01,WeatherDisplay:10.37,2013-03-24 21:48:00,
2013-03-24 17:53:00,84.8,72.2,29.71,SSW,211,12.4,18.4,66,0.00,CLR,,0.01,WeatherDisplay:10.37,2013-03-24 21:53:00,
2013-03-24 17:58:00,84.8,72.6,29.71,SW,216,7.4,13.8,67,0.00,CLR,,0.01,WeatherDisplay:10.37,2013-03-24 21:58:00,
2013-03-24 18:03:00,84.8,72.2,29.71,SW,235,14.6,19.6,66,0.00,CLR,,0.01,WeatherDisplay:10.37,2013-03-24 22:03:00,
2013-03-24 18:08:00,84.6,72.4,29.71,West,266,4.2,9.2,67,0.00,CLR,,0.01,WeatherDisplay:10.37,2013-03-24 22:08:00,
2013-03-24 18:13:00,84.4,72.2,29.72,SW,231,13.7,13.8,67,0.00,CLR,,0.01,WeatherDisplay:10.37,2013-03-24 22:13:00,
2013-03-24 18:18:00,84.0,71.9,29.72,SSW,206,7.2,12.7,67,0.00,CLR,,0.01,WeatherDisplay:10.37,2013-03-24 22:18:00,
2013-03-24 18:23:00,83.7,72.0,29.71,SSW,209,12.2,18.4,68,0.00,CLR,,0.01,WeatherDisplay:10.37,2013-03-24 22:23:00,
2013-03-24 18:28:00,83.3,71.6,29.71,SW,225,15.1,17.3,68,0.00,CLR,,0.01,WeatherDisplay:10.37,2013-03-24 22:28:00,
2013-03-24 18:33:00,83.0,71.3,29.71,SW,233,10.4,16.1,68,0.00,CLR,,0.01,WeatherDisplay:10.37,2013-03-24 22:33:00,
2013-03-24 18:38:00,82.9,71.7,29.71,SW,229,8.7,13.8,69,0.00,CLR,,0.01,WeatherDisplay:10.37,2013-03-24 22:38:00,
2013-03-24 18:43:00,82.7,71.9,29.71,West,272,5.1,10.4,70,0.00,CLR,,0.01,WeatherDisplay:10.37,2013-03-24 22:43:00,
2013-03-24 18:48:00,82.5,71.7,29.70,SW,234,10.0,15.0,70,0.00,CLR,,0.01,WeatherDisplay:10.37,2013-03-24 22:48:00,
2013-03-24 18:53:00,82.4,71.6,29.70,SW,236,9.7,12.7,70,0.00,CLR,,0.01,WeatherDisplay:10.37,2013-03-24 22:53:00,
2013-03-24 18:58:00,82.2,71.4,29.71,SW,235,5.4,8.1,70,0.00,CLR,,0.01,WeatherDisplay:10.37,2013-03-24 22:58:00,
2013-03-24 19:03:00,82.1,71.8,29.71,WSW,246,10.6,10.6,71,0.00,CLR,,0.01,WeatherDisplay:10.37,2013-03-24 23:03:00,
2013-03-24 19:08:00,81.8,71.5,29.72,WSW,249,8.8,12.7,71,0.00,CLR,,0.01,WeatherDisplay:10.37,2013-03-24 23:08:00,
2013-03-24 19:13:00,81.6,71.7,29.73,SW,226,8.7,11.5,72,0.00,CLR,,0.01,WeatherDisplay:10.37,2013-03-24 23:13:00,
2013-03-24 19:18:00,81.5,71.6,29.73,SW,230,9.7,15.0,72,0.00,CLR,,0.01,WeatherDisplay:10.37,2013-03-24 23:18:00,
2013-03-24 19:23:00,81.2,71.7,29.73,West,263,10.3,19.6,73,0.00,CLR,,0.01,WeatherDisplay:10.37,2013-03-24 23:23:00,
2013-03-24 19:28:00,80.9,71.8,29.73,SW,232,10.9,16.1,74,0.00,CLR,,0.01,WeatherDisplay:10.37,2013-03-24 23:28:00,
2013-03-24 19:33:00,80.7,71.6,29.73,West,281,6.6,6.9,74,0.00,CLR,,0.01,WeatherDisplay:10.37,2013-03-24 23:33:00,
2013-03-24 19:38:00,80.5,71.4,29.74,West,259,9.5,9.5,74,0.00,CLR,,0.01,WeatherDisplay:10.37,2013-03-24 23:38:00,
2013-03-24 19:43:00,80.3,71.6,29.74,SW,231,5.3,9.2,75,0.00,CLR,,0.01,WeatherDisplay:10.37,2013-03-24 23:43:00,
2013-03-24 19:49:00,80.1,71.5,29.74,West,259,4.5,11.5,75,0.00,CLR,,0.01,WeatherDisplay:10.37,2013-03-24 23:49:00,
2013-03-24 19:54:00,80.0,71.8,29.74,West,263,7.1,9.2,76,0.00,CLR,,0.01,WeatherDisplay:10.37,2013-03-24 23:54:00,
2013-03-24 19:59:00,79.8,71.6,29.74,SW,221,2.6,4.6,76,0.00,CLR,,0.01,WeatherDisplay:10.37,2013-03-24 23:59:00,
2013-03-24 20:04:00,79.7,71.5,29.75,SW,236,5.8,9.2,76,0.00,CLR,,0.01,WeatherDisplay:10.37,2013-03-25 00:04:00,
2013-03-24 20:09:00,79.5,71.7,29.75,WSW,242,4.6,6.9,77,0.00,CLR,,0.01,WeatherDisplay:10.37,2013-03-25 00:09:00,
2013-03-24 20:14:00,79.4,71.6,29.75,SW,231,4.4,8.1,77,0.00,CLR,,0.01,WeatherDisplay:10.37,2013-03-25 00:14:00,
2013-03-24 20:19:00,79.3,71.5,29.75,SSW,212,2.6,6.9,77,0.00,CLR,,0.01,WeatherDisplay:10.37,2013-03-25 00:19:00,
2013-03-24 20:24:00,79.1,71.6,29.75,SW,229,3.4,5.8,78,0.00,CLR,,0.01,WeatherDisplay:10.37,2013-03-25 00:24:00,
2013-03-24 20:29:00,79.0,71.6,29.75,SW,229,3.8,4.6,78,0.00,CLR,,0.01,WeatherDisplay:10.37,2013-03-25 00:29:00,
2013-03-24 20:34:00,78.8,71.4,29.75,SW,236,2.2,4.6,78,0.00,CLR,,0.01,WeatherDisplay:10.37,2013-03-25 00:34:00,
2013-03-24 20:39:00,78.7,71.6,29.75,SW,223,3.8,3.8,79,0.00,CLR,,0.01,WeatherDisplay:10.37,2013-03-25 00:39:00,
2013-03-24 20:44:00,78.5,71.4,29.75,WSW,252,1.7,3.5,79,0.00,CLR,,0.01,WeatherDisplay:10.37,2013-03-25 00:44:00,
2013-03-24 20:49:00,78.4,71.3,29.75,SW,229,2.6,3.5,79,0.00,CLR,,0.01,WeatherDisplay:10.37,2013-03-25 00:49:00,
2013-03-24 20:54:00,78.2,71.5,29.76,WSW,242,2.8,4.6,80,0.00,CLR,,0.01,WeatherDisplay:10.37,2013-03-25 00:54:00,
2013-03-24 20:59:00,78.1,71.4,29.76,WSW,249,1.5,3.5,80,0.00,CLR,,0.01,WeatherDisplay:10.37,2013-03-25 00:59:00,
2013-03-24 21:04:00,78.1,71.4,29.77,SW,236,0.5,3.5,80,0.00,CLR,,0.01,WeatherDisplay:10.37,2013-03-25 01:04:00,
2013-03-24 21:09:00,78.0,71.7,29.77,WSW,242,0.1,3.5,81,0.00,CLR,,0.01,WeatherDisplay:10.37,2013-03-25 01:09:00,
2013-03-24 21:14:00,78.0,71.7,29.77,WSW,240,1.2,3.5,81,0.00,CLR,,0.01,WeatherDisplay:10.37,2013-03-25 01:14:00,
2013-03-24 21:19:00,78.0,71.7,29.77,SW,233,2.0,5.8,81,0.00,CLR,,0.01,WeatherDisplay:10.37,2013-03-25 01:19:00,
2013-03-24 21:24:00,78.0,71.7,29.77,SW,221,1.0,1.2,81,0.00,CLR,,0.01,WeatherDisplay:10.37,2013-03-25 01:24:00,
2013-03-24 21:29:00,78.0,71.7,29.77,SW,223,2.0,3.5,81,0.00,CLR,,0.01,WeatherDisplay:10.37,2013-03-25 01:29:00,
2013-03-24 21:34:00,78.0,71.7,29.77,WSW,242,2.3,3.5,81,0.00,CLR,,0.01,WeatherDisplay:10.37,2013-03-25 01:34:00,
2013-03-24 21:39:00,78.1,71.8,29.77,SW,221,4.9,8.1,81,0.00,CLR,,0.01,WeatherDisplay:10.37,2013-03-25 01:39:00,
2013-03-24 21:44:00,78.2,71.5,29.77,WSW,247,3.8,5.8,80,0.00,CLR,,0.01,WeatherDisplay:10.37,2013-03-25 01:44:00,
2013-03-24 21:49:00,78.2,71.5,29.77,SW,224,2.3,5.8,80,0.00,CLR,,0.01,WeatherDisplay:10.37,2013-03-25 01:49:00,
2013-03-24 21:54:00,78.3,71.6,29.77,SW,223,3.1,4.6,80,0.00,CLR,,0.01,WeatherDisplay:10.37,2013-03-25 01:54:00,
2013-03-24 21:59:00,78.3,71.6,29.77,SW,227,5.1,6.0,80,0.00,CLR,,0.01,WeatherDisplay:10.37,2013-03-25 01:59:00,
2013-03-24 22:04:00,78.3,71.6,29.77,SW,229,1.6,5.0,80,0.00,CLR,,0.01,WeatherDisplay:10.37,2013-03-25 02:04:00,
2013-03-24 22:09:00,78.3,71.6,29.77,SW,225,5.2,6.9,80,0.00,CLR,,0.01,WeatherDisplay:10.37,2013-03-25 02:09:00,
2013-03-24 22:14:00,78.3,71.6,29.78,SW,221,4.0,6.9,80,0.00,CLR,,0.01,WeatherDisplay:10.37,2013-03-25 02:14:00,
2013-03-24 22:19:00,78.3,71.6,29.78,SSW,212,5.1,6.9,80,0.00,CLR,,0.01,WeatherDisplay:10.37,2013-03-25 02:19:00,
2013-03-24 22:24:00,78.3,71.6,29.78,WNW,288,5.2,10.4,80,0.00,CLR,,0.01,WeatherDisplay:10.37,2013-03-25 02:24:00,
2013-03-24 22:29:00,78.3,71.6,29.78,WSW,238,2.1,8.1,80,0.00,CLR,,0.01,WeatherDisplay:10.37,2013-03-25 02:29:00,
2013-03-24 22:34:00,78.3,72.0,29.78,WSW,246,4.4,8.1,81,0.00,CLR,,0.01,WeatherDisplay:10.37,2013-03-25 02:34:00,
2013-03-24 22:39:00,78.3,72.0,29.78,SW,229,5.3,8.1,81,0.00,CLR,,0.01,WeatherDisplay:10.37,2013-03-25 02:39:00,
2013-03-24 22:44:00,78.2,72.6,29.78,SW,235,5.8,8.1,83,0.01,RA,,0.02,WeatherDisplay:10.37,2013-03-25 02:44:00,
2013-03-24 22:49:00,77.8,72.6,29.78,SW,221,2.0,9.2,84,0.01,RA,,0.02,WeatherDisplay:10.37,2013-03-25 02:49:00,
2013-03-24 22:54:00,77.5,72.3,29.78,WNW,298,3.5,5.0,84,0.01,,,0.02,WeatherDisplay:10.37,2013-03-25 02:54:00,
2013-03-24 22:59:00,77.3,72.4,29.78,SW,236,1.9,5.8,85,0.01,CLR,,0.02,WeatherDisplay:10.37,2013-03-25 02:59:00,
2013-03-24 23:04:00,77.2,72.3,29.78,SW,232,3.3,4.6,85,0.01,CLR,,0.02,WeatherDisplay:10.37,2013-03-25 03:04:00,
2013-03-24 23:09:00,77.1,72.2,29.78,SW,221,0.9,5.8,85,0.01,CLR,,0.02,WeatherDisplay:10.37,2013-03-25 03:09:00,
2013-03-24 23:15:00,77.0,72.1,29.78,SW,223,6.7,10.4,85,0.01,CLR,,0.02,WeatherDisplay:10.37,2013-03-25 03:15:00,
2013-03-24 23:20:00,77.0,72.5,29.78,SW,229,5.1,5.1,86,0.01,CLR,,0.02,WeatherDisplay:10.37,2013-03-25 03:20:00,
2013-03-24 23:25:00,77.0,72.5,29.78,SSW,209,1.7,3.5,86,0.01,CLR,,0.02,WeatherDisplay:10.37,2013-03-25 03:25:00,
2013-03-24 23:30:00,77.0,72.5,29.77,SW,232,4.4,6.9,86,0.01,CLR,,0.02,WeatherDisplay:10.37,2013-03-25 03:30:00,
2013-03-24 23:35:00,77.0,72.5,29.77,SW,236,4.1,5.8,86,0.01,CLR,,0.02,WeatherDisplay:10.37,2013-03-25 03:35:00,
2013-03-24 23:40:00,77.0,72.5,29.77,SW,218,2.1,3.5,86,0.01,CLR,,0.02,WeatherDisplay:10.37,2013-03-25 03:40:00,
2013-03-24 23:45:00,76.9,72.4,29.77,SW,217,1.4,0.0,86,0.00,RA,,0.02,WeatherDisplay:10.37,2013-03-25 03:45:00,
2013-03-24 23:50:00,76.8,72.3,29.77,SW,221,3.2,5.8,86,0.00,RA,,0.02,WeatherDisplay:10.37,2013-03-25 03:50:00,
2013-03-24 23:55:00,76.7,72.5,29.77,SW,225,2.7,3.5,87,0.00,CLR,,0.02,WeatherDisplay:10.37,2013-03-25 03:55:00,